sat.trackr.live / text

‹ back to catalog

STARLINK-32254

NORAD 60427 · 2024-144C

PAYLOAD ACTIVE UNKNOWN

§ Identity

Operator
Country
US
Launch date
2024-08-12
Launch site
AFETR
Launch vehicle
Mass (kg)
RCS (m²)

Purposes: comms

External: N2YO · Heavens-Above · Gunter

§ Orbital elements

Epoch: 2026-09-21T14:09:36.358560Z

Period
93.85 min
Inclination
53.1614°
Eccentricity
0.0001366
Mean motion
15.34417484 rev/d
Perigee alt
461.7 km
Apogee alt
463.6 km
Semi-major
6,840.8 km
B*
-2.1348e-4
RAAN
24.2736°
Arg perigee
92.5887°
Mean anomaly
267.5272°
Rev number
11,938

§ Raw data

STARLINK-322541 60427U 24144C   26264.59000415 -.00007586  00000+0 -21348-3 0  99962 60427  53.1614  24.2736 0001366  92.5887 267.5272 15.34417484119384

JSON: /api/v1/satellites/60427 · /tle

For live sub-satellite position, see the globe view (requires WebGL).

§ Visibility from observer

Set your observer location to see the next 7 days of passes ≥ 10°. The values pass through the URL so the page stays shareable.

No JS? Fill the form by hand. The geolocation button needs JavaScript.